THY14T LTAC-LTFM

Flight info

Callsign THY14T
Flight time 0h 57m
Altitude 28000
Route YAVRU A4 ERSEN
Aircraft A359/H-SDE2E3GHIJ3J4J5LM1ORWXY/LB1D1

Departure

Time 2026-02-18 11:00
Airport Esenboğa International Airport (LTAC)

Arrival

Time 2026-02-18 11:57
Airport İstanbul Airport (LTFM)
Time Latitude Longitude Altitude Speed Heading
2026-02-18 10:52 40.12279 32.99456 3140 ft 10 kts 36°
2026-02-18 10:53 40.12332 32.99507 3140 ft 9 kts 36°
2026-02-18 10:53 40.12418 32.99590 3140 ft 7 kts 36°
2026-02-18 10:53 40.12459 32.99629 3141 ft 8 kts 36°
2026-02-18 10:54 40.12514 32.99681 3141 ft 12 kts 36°
2026-02-18 10:54 40.12593 32.99755 3141 ft 16 kts 37°
2026-02-18 10:54 40.12690 32.99851 3141 ft 19 kts 37°
2026-02-18 10:54 40.12808 32.99963 3140 ft 23 kts 36°
2026-02-18 10:55 40.12944 33.00093 3140 ft 26 kts 36°
2026-02-18 10:55 40.13095 33.00238 3141 ft 28 kts 36°
2026-02-18 10:55 40.13259 33.00394 3141 ft 30 kts 36°
2026-02-18 10:55 40.13435 33.00561 3141 ft 32 kts 36°
2026-02-18 10:56 40.13619 33.00736 3141 ft 34 kts 36°
2026-02-18 10:56 40.13814 33.00923 3141 ft 32 kts 36°
2026-02-18 10:56 40.13972 33.01063 3141 ft 23 kts 21°
2026-02-18 10:56 40.14081 33.01028 3142 ft 14 kts 308°
2026-02-18 10:57 40.14120 33.00915 3142 ft 14 kts 298°
2026-02-18 10:57 40.14169 33.00828 3140 ft 1 kts 307°
2026-02-18 10:57 40.14173 33.00820 3140 ft 2 kts 307°
2026-02-18 10:58 40.14190 33.00791 3140 ft 6 kts 307°
2026-02-18 10:58 40.14213 33.00737 3140 ft 8 kts 284°
2026-02-18 10:58 40.14194 33.00671 3139 ft 9 kts 230°
2026-02-18 10:58 40.14151 33.00633 3138 ft 6 kts 214°
2026-02-18 10:59 40.14128 33.00612 3138 ft 0 kts 215°
2026-02-18 10:59 40.14000 33.00490 3139 ft 57 kts 217°
2026-02-18 10:59 40.13507 33.00017 3141 ft 118 kts 218°
2026-02-18 10:59 40.12724 32.99279 3362 ft 151 kts 217°
2026-02-18 11:00 40.11805 32.98431 3792 ft 176 kts 216°
2026-02-18 11:00 40.10737 32.97428 4203 ft 201 kts 215°
2026-02-18 11:00 40.09533 32.96356 4713 ft 214 kts 217°
2026-02-18 11:00 40.08320 32.95185 5324 ft 220 kts 218°
2026-02-18 11:01 40.07110 32.93995 5964 ft 224 kts 218°
2026-02-18 11:01 40.04557 32.91542 7272 ft 232 kts 217°
2026-02-18 11:01 40.03299 32.90208 7985 ft 233 kts 225°
2026-02-18 11:02 40.02416 32.88437 8720 ft 236 kts 248°
2026-02-18 11:02 40.02194 32.86285 9388 ft 250 kts 270°
2026-02-18 11:02 40.02785 32.84057 9756 ft 274 kts 296°
2026-02-18 11:02 40.03901 32.82020 10275 ft 286 kts 302°
2026-02-18 11:03 40.05157 32.79907 10610 ft 302 kts 302°
2026-02-18 11:03 40.06472 32.77681 10963 ft 318 kts 302°
2026-02-18 11:03 40.07843 32.75329 11273 ft 333 kts 302°
2026-02-18 11:03 40.09270 32.72868 11565 ft 346 kts 302°
2026-02-18 11:04 40.10738 32.70334 11982 ft 353 kts 302°
2026-02-18 11:04 40.12223 32.67757 12557 ft 357 kts 302°
2026-02-18 11:04 40.13718 32.65154 13134 ft 360 kts 302°
2026-02-18 11:04 40.15223 32.62523 13687 ft 362 kts 301°
2026-02-18 11:05 40.16715 32.59906 14156 ft 365 kts 301°
2026-02-18 11:05 40.19770 32.54543 15185 ft 371 kts 302°
2026-02-18 11:05 40.21490 32.51975 15512 ft 378 kts 309°
2026-02-18 11:06 40.23391 32.49575 15576 ft 381 kts 311°
2026-02-18 11:06 40.25328 32.47215 15573 ft 381 kts 311°
2026-02-18 11:06 40.27273 32.44846 15567 ft 382 kts 311°
2026-02-18 11:06 40.29213 32.42470 15565 ft 382 kts 311°
2026-02-18 11:07 40.31125 32.40119 15563 ft 382 kts 311°
2026-02-18 11:07 40.33057 32.37737 15558 ft 382 kts 311°
2026-02-18 11:07 40.34987 32.35350 15553 ft 381 kts 311°
2026-02-18 11:07 40.36915 32.32962 15554 ft 381 kts 311°
2026-02-18 11:08 40.38843 32.30573 15545 ft 382 kts 311°
2026-02-18 11:08 40.40776 32.28178 15551 ft 382 kts 311°
2026-02-18 11:08 40.42708 32.25779 15665 ft 385 kts 311°
2026-02-18 11:08 40.44658 32.23353 16220 ft 386 kts 311°
2026-02-18 11:09 40.46544 32.20844 16749 ft 384 kts 305°
2026-02-18 11:09 40.48987 32.14808 17762 ft 377 kts 286°
2026-02-18 11:09 40.49928 32.11590 18196 ft 379 kts 285°
2026-02-18 11:10 40.50871 32.08339 18654 ft 382 kts 285°
2026-02-18 11:10 40.51823 32.05068 19078 ft 384 kts 285°
2026-02-18 11:10 40.52783 32.01788 19508 ft 386 kts 286°
2026-02-18 11:10 40.53754 31.98483 19905 ft 389 kts 286°
2026-02-18 11:11 40.54732 31.95159 20333 ft 391 kts 286°
2026-02-18 11:11 40.55705 31.91857 20780 ft 393 kts 286°
2026-02-18 11:11 40.56694 31.88497 21185 ft 395 kts 286°
2026-02-18 11:11 40.57689 31.85108 21604 ft 398 kts 286°
2026-02-18 11:12 40.58633 31.81695 21999 ft 398 kts 283°
2026-02-18 11:12 40.59505 31.78223 22391 ft 400 kts 283°
2026-02-18 11:12 40.60366 31.74731 22807 ft 402 kts 283°
2026-02-18 11:12 40.61230 31.71215 23195 ft 405 kts 283°
2026-02-18 11:13 40.62099 31.67686 23526 ft 407 kts 283°
2026-02-18 11:13 40.63854 31.60562 24214 ft 411 kts 283°
2026-02-18 11:13 40.64739 31.56971 24552 ft 413 kts 282°
2026-02-18 11:14 40.65615 31.53415 24891 ft 415 kts 282°
2026-02-18 11:14 40.66504 31.49791 25245 ft 417 kts 282°
2026-02-18 11:14 40.67397 31.46153 25623 ft 419 kts 282°
2026-02-18 11:14 40.68293 31.42490 26001 ft 421 kts 282°
2026-02-18 11:15 40.69193 31.38805 26386 ft 424 kts 282°
2026-02-18 11:15 40.70098 31.35098 26776 ft 426 kts 282°
2026-02-18 11:15 40.71006 31.31371 27198 ft 428 kts 282°
2026-02-18 11:15 40.71907 31.27676 27543 ft 430 kts 282°
2026-02-18 11:16 40.72826 31.23879 27616 ft 442 kts 282°
2026-02-18 11:16 40.73774 31.19940 27623 ft 458 kts 282°
2026-02-18 11:16 40.74749 31.15901 27619 ft 463 kts 282°
2026-02-18 11:16 40.75731 31.11857 27624 ft 463 kts 282°
2026-02-18 11:17 40.76710 31.07820 27627 ft 462 kts 282°
2026-02-18 11:17 40.78660 30.99732 27639 ft 462 kts 282°
2026-02-18 11:17 40.79630 30.95695 27641 ft 462 kts 282°
2026-02-18 11:18 40.80585 30.91709 27640 ft 462 kts 282°
2026-02-18 11:18 40.81552 30.87666 27650 ft 462 kts 282°
2026-02-18 11:18 40.82520 30.83614 27649 ft 462 kts 282°
2026-02-18 11:18 40.83485 30.79571 27654 ft 462 kts 282°
2026-02-18 11:19 40.84449 30.75518 27656 ft 462 kts 282°
2026-02-18 11:19 40.85409 30.71475 27657 ft 462 kts 282°
2026-02-18 11:19 40.86349 30.67409 27659 ft 461 kts 280°
2026-02-18 11:19 40.87074 30.63293 27663 ft 459 kts 277°
2026-02-18 11:20 40.87701 30.59163 27668 ft 459 kts 276°
2026-02-18 11:20 40.88305 30.55081 27664 ft 459 kts 276°
2026-02-18 11:20 40.88916 30.50945 27667 ft 459 kts 276°
2026-02-18 11:20 40.89530 30.46807 27670 ft 459 kts 276°
2026-02-18 11:21 40.90068 30.42660 27674 ft 457 kts 272°
2026-02-18 11:21 40.90879 30.34331 27681 ft 462 kts 279°
2026-02-18 11:21 40.91970 30.30317 27677 ft 466 kts 291°
2026-02-18 11:22 40.93694 30.26741 27679 ft 457 kts 303°
2026-02-18 11:22 40.95915 30.23797 27684 ft 454 kts 316°
2026-02-18 11:22 40.98633 30.21459 27689 ft 479 kts 328°
2026-02-18 11:22 41.01780 30.19916 27687 ft 502 kts 342°
2026-02-18 11:23 41.05244 30.19055 27685 ft 508 kts 347°
2026-02-18 11:23 41.08745 30.18366 27681 ft 508 kts 348°
2026-02-18 11:23 41.12243 30.17688 27679 ft 508 kts 348°
2026-02-18 11:23 41.15746 30.16993 27679 ft 508 kts 348°
2026-02-18 11:24 41.19235 30.16288 27677 ft 508 kts 348°
2026-02-18 11:24 41.22722 30.15575 27450 ft 506 kts 348°
2026-02-18 11:24 41.26189 30.14861 27268 ft 506 kts 348°
2026-02-18 11:24 41.29676 30.14132 27268 ft 505 kts 347°
2026-02-18 11:25 41.33039 30.12992 26870 ft 492 kts 335°
2026-02-18 11:25 41.39005 30.09036 25646 ft 476 kts 327°
2026-02-18 11:25 41.41904 30.06949 25081 ft 471 kts 327°
2026-02-18 11:26 41.44771 30.04894 24500 ft 465 kts 327°
2026-02-18 11:26 41.47620 30.02862 23928 ft 461 kts 327°
2026-02-18 11:26 41.50426 30.00866 23419 ft 455 kts 327°
2026-02-18 11:26 41.53179 29.98914 23260 ft 440 kts 327°
2026-02-18 11:27 41.55832 29.97035 23114 ft 425 kts 327°
2026-02-18 11:27 41.58405 29.95211 22931 ft 412 kts 327°
2026-02-18 11:27 41.60899 29.93440 22688 ft 401 kts 327°
2026-02-18 11:27 41.63332 29.91710 22452 ft 391 kts 326°
2026-02-18 11:28 41.65644 29.90071 22064 ft 371 kts 326°
2026-02-18 11:28 41.67882 29.88481 21283 ft 361 kts 326°
2026-02-18 11:28 41.70094 29.86900 20552 ft 360 kts 326°
2026-02-18 11:28 41.72295 29.85325 20150 ft 358 kts 326°
2026-02-18 11:29 41.74485 29.83759 19740 ft 356 kts 326°
2026-02-18 11:29 41.78833 29.80651 18944 ft 352 kts 326°
2026-02-18 11:29 41.80985 29.79092 18530 ft 349 kts 323°
2026-02-18 11:30 41.82844 29.77117 18126 ft 334 kts 304°
2026-02-18 11:30 41.83972 29.74514 17801 ft 314 kts 282°
2026-02-18 11:30 41.84349 29.71734 17560 ft 297 kts 268°
2026-02-18 11:30 41.84451 29.69003 17284 ft 290 kts 266°
2026-02-18 11:31 41.84512 29.66323 17007 ft 284 kts 266°
2026-02-18 11:31 41.84572 29.63739 16746 ft 279 kts 266°
2026-02-18 11:31 41.84637 29.61194 16398 ft 267 kts 266°
2026-02-18 11:31 41.84612 29.58721 15803 ft 264 kts 257°
2026-02-18 11:32 41.84116 29.56355 15577 ft 264 kts 243°
2026-02-18 11:32 41.83298 29.54179 15323 ft 259 kts 238°
2026-02-18 11:32 41.82431 29.52072 15077 ft 257 kts 238°
2026-02-18 11:32 41.81569 29.49988 14748 ft 253 kts 238°
2026-02-18 11:33 41.80629 29.48040 14486 ft 253 kts 227°
2026-02-18 11:33 41.77627 29.45934 14005 ft 254 kts 188°
2026-02-18 11:33 41.75857 29.45825 13995 ft 255 kts 184°
2026-02-18 11:34 41.74085 29.45807 13993 ft 255 kts 184°
2026-02-18 11:34 41.72313 29.45789 13993 ft 254 kts 184°
2026-02-18 11:34 41.71548 29.45778 13999 ft 254 kts 184°
2026-02-18 11:34 41.69790 29.45749 13992 ft 254 kts 184°
2026-02-18 11:35 41.68021 29.45715 13988 ft 254 kts 185°
2026-02-18 11:35 41.66252 29.45679 13993 ft 254 kts 185°
2026-02-18 11:35 41.64712 29.45647 13996 ft 254 kts 185°
2026-02-18 11:35 41.62940 29.45642 13996 ft 254 kts 184°
2026-02-18 11:36 41.61169 29.45668 13997 ft 254 kts 183°
2026-02-18 11:36 41.59401 29.45700 13995 ft 254 kts 183°
2026-02-18 11:36 41.57629 29.45733 13992 ft 254 kts 183°
2026-02-18 11:36 41.55859 29.45766 13998 ft 254 kts 183°
2026-02-18 11:37 41.54687 29.45784 13998 ft 254 kts 184°
2026-02-18 11:37 41.52100 29.45369 14000 ft 251 kts 194°
2026-02-18 11:37 41.50401 29.44827 14003 ft 251 kts 196°
2026-02-18 11:38 41.48711 29.44258 14001 ft 251 kts 196°
2026-02-18 11:38 41.47019 29.43686 13999 ft 251 kts 196°
2026-02-18 11:38 41.45327 29.43115 14006 ft 251 kts 196°
2026-02-18 11:38 41.43672 29.42405 14006 ft 250 kts 205°
2026-02-18 11:39 41.42123 29.41361 14004 ft 249 kts 209°
2026-02-18 11:39 41.40610 29.40237 14004 ft 249 kts 209°
2026-02-18 11:39 41.39101 29.39106 14009 ft 249 kts 209°
2026-02-18 11:39 41.37608 29.37991 14011 ft 249 kts 209°
2026-02-18 11:40 41.36092 29.36863 13921 ft 254 kts 209°
2026-02-18 11:40 41.34425 29.35629 13731 ft 295 kts 209°
2026-02-18 11:40 41.32916 29.34518 13589 ft 326 kts 209°
2026-02-18 11:40 41.31005 29.33114 13404 ft 351 kts 209°
2026-02-18 11:41 41.28860 29.31478 13184 ft 358 kts 211°
2026-02-18 11:41 41.24605 29.28029 12705 ft 357 kts 212°
2026-02-18 11:41 41.22497 29.26310 12446 ft 355 kts 212°
2026-02-18 11:42 41.20419 29.24617 12195 ft 354 kts 212°
2026-02-18 11:42 41.18323 29.22912 11921 ft 352 kts 212°
2026-02-18 11:42 41.16260 29.21238 11428 ft 343 kts 212°
2026-02-18 11:42 41.14248 29.19606 10985 ft 333 kts 212°
2026-02-18 11:43 41.12324 29.18047 10857 ft 316 kts 212°
2026-02-18 11:43 41.10501 29.16572 10726 ft 299 kts 212°
2026-02-18 11:43 41.08765 29.15168 10598 ft 285 kts 211°
2026-02-18 11:43 41.07108 29.13828 10467 ft 273 kts 211°
2026-02-18 11:44 41.05518 29.12543 10346 ft 261 kts 212°
2026-02-18 11:44 41.03999 29.11313 10209 ft 259 kts 212°
2026-02-18 11:44 41.02462 29.10071 10097 ft 260 kts 211°
2026-02-18 11:44 41.01329 29.09156 9993 ft 260 kts 212°
2026-02-18 11:45 40.99788 29.07912 9761 ft 259 kts 211°
2026-02-18 11:45 40.96752 29.05467 9396 ft 255 kts 211°
2026-02-18 11:45 40.96254 29.05066 9338 ft 252 kts 211°
2026-02-18 11:46 40.95191 29.04210 9221 ft 244 kts 211°
2026-02-18 11:46 40.93775 29.03071 9096 ft 233 kts 212°
2026-02-18 11:46 40.92428 29.01970 8945 ft 223 kts 213°
2026-02-18 11:46 40.91300 29.00598 8831 ft 222 kts 231°
2026-02-18 11:47 40.90631 28.98779 8717 ft 226 kts 247°
2026-02-18 11:47 40.90185 28.96778 8513 ft 226 kts 250°
2026-02-18 11:47 40.89783 28.94774 8313 ft 226 kts 250°
2026-02-18 11:47 40.89380 28.92770 8090 ft 225 kts 250°
2026-02-18 11:48 40.88971 28.90778 7896 ft 224 kts 250°
2026-02-18 11:48 40.88560 28.88795 7692 ft 223 kts 249°
2026-02-18 11:48 40.88146 28.86819 7486 ft 223 kts 249°
2026-02-18 11:48 40.87737 28.84856 7277 ft 222 kts 250°
2026-02-18 11:49 40.87540 28.82846 7068 ft 228 kts 266°
2026-02-18 11:49 40.89265 28.79261 6632 ft 255 kts 322°
2026-02-18 11:49 40.90856 28.78181 6372 ft 258 kts 328°
2026-02-18 11:50 40.92287 28.77291 6152 ft 256 kts 327°
2026-02-18 11:50 40.93830 28.76217 5986 ft 246 kts 325°
2026-02-18 11:50 40.95295 28.75137 5885 ft 235 kts 323°
2026-02-18 11:50 40.96689 28.74105 5771 ft 225 kts 325°
2026-02-18 11:51 40.98159 28.73455 5600 ft 223 kts 342°
2026-02-18 11:51 40.99675 28.73276 5342 ft 220 kts 353°
2026-02-18 11:51 41.01177 28.73265 5124 ft 210 kts 354°
2026-02-18 11:51 41.02574 28.73253 5004 ft 190 kts 353°
2026-02-18 11:52 41.03818 28.73236 4895 ft 172 kts 353°
2026-02-18 11:52 41.04979 28.73196 4743 ft 170 kts 351°
2026-02-18 11:52 41.06162 28.73163 4525 ft 170 kts 352°
2026-02-18 11:52 41.07312 28.73143 4263 ft 170 kts 352°
2026-02-18 11:53 41.08487 28.73120 4056 ft 169 kts 352°
2026-02-18 11:53 41.10836 28.73074 3575 ft 169 kts 353°
2026-02-18 11:53 41.12011 28.73051 3346 ft 169 kts 353°
2026-02-18 11:54 41.13184 28.73028 3092 ft 169 kts 353°
2026-02-18 11:54 41.14349 28.73007 2884 ft 167 kts 353°
2026-02-18 11:54 41.15489 28.72982 2642 ft 166 kts 353°
2026-02-18 11:54 41.16665 28.72957 2443 ft 168 kts 354°
2026-02-18 11:55 41.17831 28.72936 2203 ft 167 kts 355°
2026-02-18 11:55 41.18987 28.72917 1967 ft 165 kts 355°
2026-02-18 11:55 41.20132 28.72894 1739 ft 163 kts 355°
2026-02-18 11:55 41.21246 28.72872 1528 ft 161 kts 355°
2026-02-18 11:56 41.22359 28.72851 1234 ft 157 kts 356°
2026-02-18 11:56 41.23423 28.72834 965 ft 148 kts 353°
2026-02-18 11:56 41.24417 28.72814 739 ft 137 kts 353°
2026-02-18 11:56 41.25319 28.72807 580 ft 123 kts 352°
2026-02-18 11:57 41.26152 28.72786 404 ft 119 kts 352°
2026-02-18 11:57 41.27431 28.72751 340 ft 38 kts
2026-02-18 11:57 41.27689 28.72749 338 ft 38 kts 359°
2026-02-18 11:58 41.27965 28.72767 336 ft 41 kts 16°
2026-02-18 11:58 41.28128 28.72897 335 ft 13 kts 65°
2026-02-18 11:58 41.28102 28.72955 338 ft 8 kts 160°
2026-02-18 11:58 41.28035 28.72963 337 ft 11 kts 179°
2026-02-18 11:59 41.27958 28.72964 336 ft 15 kts 179°
2026-02-18 11:59 41.27842 28.72965 337 ft 19 kts 179°
2026-02-18 11:59 41.27702 28.72967 336 ft 22 kts 177°
2026-02-18 11:59 41.27547 28.72971 335 ft 23 kts 179°
2026-02-18 12:00 41.27408 28.73020 337 ft 23 kts 128°
2026-02-18 12:00 41.27290 28.73103 336 ft 20 kts 179°
2026-02-18 12:00 41.27158 28.73098 339 ft 21 kts 178°
2026-02-18 12:00 41.27004 28.73107 337 ft 22 kts 166°
2026-02-18 12:01 41.26957 28.73202 337 ft 12 kts 89°
2026-02-18 12:01 41.26958 28.73399 336 ft 16 kts 90°
2026-02-18 12:01 41.26958 28.73567 336 ft 20 kts 90°
2026-02-18 12:02 41.26966 28.73763 340 ft 23 kts 85°
2026-02-18 12:02 41.26936 28.73881 336 ft 9 kts 152°
2026-02-18 12:02 41.26862 28.73892 336 ft 12 kts 187°
2026-02-18 12:02 41.26764 28.73886 337 ft 16 kts 181°
2026-02-18 12:03 41.26718 28.73819 336 ft 8 kts 274°
2026-02-18 12:03 41.26720 28.73760 340 ft 0 kts 270°
2026-02-18 12:04 41.26720 28.73759 340 ft 0 kts 270°